Location: Cerezo de Arriba
(41.2389°N, 3.5585°W)
Time: 03:51:09
(UTC+00:00)

ATLAS 3B R/B - Pass Details

Date: 19 May 2025
Orbit: 935 x 1258 km, 63.8° (Epoch: 23 June)

Event Time Altitude Azimuth Distance (km) Brightness Sun altitude
Exits shadow 21:30:09 17° 99° (E) 2,636 4.3 -18.4°
Drops below altitude 10° 21:34:03 10° 67° (ENE) 3,156 5.0 -18.8°
Sets 21:38:03 0° 49° (NE) 4,169 5.8 -19.3°
